User: anonymous   Login
Location: Newark
(35.6799°N, 139.7636°E)
Time: 02:31:41
(UTC+00:00)
Language:

Transit 2A Rocket - Orbit

View from above orbital plane
View from above orbital plane
View from above satellite
View from above satellite

Ground track
Ground track

The orbit data is extracted from the following two-line orbital elements,

1    47U 60007C   19342.38206998 -.00000032  00000-0  17907-4 0  9992
2    47  66.6662 308.5694 0220324  83.5950 279.0191 14.42061872107432
Epoch (UTC): 08 December 2019 09:10:10
Eccentricity: 0.0220324
inclination: 66.6662°
perigee height: 594 km
apogee height: 909 km
right ascension of ascending node: 308.5694°
argument of perigee: 83.5950°
revolutions per day: 14.42061872
mean anomaly at epoch: 279.0191°
orbit number at epoch: 10743

The dashed part of the orbit path shows where the satellite is in the earth's shadow,  

DLR